叶彗星

C/2019 K4 ( Ye )

English version
Home page
Updated on November 10, 2019

---------------------------------------------------------------------

・ プロフィール

発見日 2019年5月30日
発見光度 17.1等
発見者 Quan-zhi Ye(叶泉志)(Palomar)

・ 写真集

・ 軌道要素

Epoch 2019 June 6.0 TT = JDT 2458640.5
T 2019 June 16.41306 TT                                 Williams
q   2.2593841            (2000.0)            P               Q
z  +0.0004274      Peri.  139.76942     +0.76295825     +0.64644182
 +/-0.0000041      Node   180.16467     -0.08936538     +0.10971798
e   0.9990342      Incl.  105.30572     +0.64024100     -0.75503307
From 381 observations 2019 Apr. 24-Nov. 2, mean residual 0".5.

・ 星図

・ 光度変化

        m1 = 11.7 + 5 logΔ + 10.0 log r

---------------------------------------------------------------------

軌道要素はM.P.E.C. 2019-V116に掲載されたものです。
星図はステラナビゲータ Ver.10 (アストロアーツ) で作成したものです。
光度グラフはComet for Windowsで作成したものです。

---------------------------------------------------------------------

Copyright(C) Seiichi Yoshida (comet@aerith.net). All rights reserved.